WORLDVIEW-2 (WV-2)

Last updated on Mon Sep 07 2026 00:02:45 GMT+0000 (Coordinated Universal Time)

1 35946U 09055A 26249.57888627 .00000024 00000+0 22348-4 0 9998 2 35946 98.4732 321.9125 0004017 356.0789 4.0366 14.37918311887342
UTC large
Height (km)
Speed (km/s)
/
Latitude / Longitude
Inclination (degrees)
Orbital Period (minutes)
Azimuth
Elevation
Range (km)
Doppler Factor

Next 0 passes for location: London (51.5072 / 0.1276)

No passes found over London.
WORLDVIEW-2 (WV-2)